QPF
0.01 0.01 0.02 0.02 0.01 0.02 0.03 0.02 0.02 0.04 0.04 0.03 0.03 0.02 0.01 0.01 0.00 0.00 0.01 0.00 0.01 0.00 0.00 0.00 0.01 0.02 0.03 0.04 0.09 0.12 0.10 0.09 0.07 0.04 0.02 0.04 0.09 0.13
0.02 0.01 0.01 0.02 0.02 0.03 0.05 0.04 0.05 0.04 0.04 0.03 0.02 0.01 0.00 0.00 0.00 0.00 0.01 0.01 0.01 0.00 0.00 0.00 0.01 0.01 0.03 0.04 0.06 0.09 0.08 0.08 0.06 0.03 0.02 0.04 0.05 0.10
0.02 0.01 0.02 0.03 0.03 0.03 0.04 0.05 0.05 0.05 0.03 0.02 0.02 0.02 0.01 0.00 0.00 0.00 0.00 0.01 0.01 0.01 0.00 0.00 0.01 0.01 0.02 0.02 0.05 0.07 0.08 0.07 0.05 0.03 0.03 0.05 0.06 0.09
0.02 0.02 0.03 0.03 0.03 0.02 0.03 0.04 0.05 0.05 0.02 0.02 0.02 0.02 0.01 0.01 0.00 0.00 0.00 0.00 0.00 0.01 0.01 0.01 0.01 0.01 0.02 0.02 0.04 0.07 0.08 0.07 0.05 0.03 0.03 0.06 0.08 0.10
0.01 0.01 0.02 0.02 0.02 0.02 0.03 0.03 0.04 0.04 0.03 0.02 0.02 0.02 0.01 0.01 0.01 0.00 0.00 0.01 0.01 0.01 0.02 0.02 0.01 0.01 0.02 0.02 0.03 0.06 0.07 0.06 0.04 0.02 0.01 0.03 0.05 0.08
0.01 0.00 0.01 0.01 0.02 0.02 0.01 0.01 0.02 0.02 0.02 0.02 0.01 0.01 0.01 0.01 0.01 0.01 0.01 0.01 0.01 0.01 0.01 0.01 0.02 0.02 0.02 0.02 0.03 0.04 0.05 0.04 0.03 0.02 0.01 0.01 0.02 0.04
0.01 0.01 0.01 0.02 0.02 0.01 0.01 0.01 0.01 0.01 0.01 0.01 0.01 0.01 0.01 0.01 0.01 0.01 0.01 0.01 0.01 0.02 0.02 0.03 0.03 0.03 0.03 0.03 0.04 0.04 0.04 0.03 0.02 0.02 0.01 0.01 0.02 0.02
0.01 0.01 0.01 0.02 0.02 0.01 0.01 0.01 0.01 0.01 0.01 0.01 0.01 0.01 0.01 0.02 0.02 0.02 0.01 0.01 0.01 0.02 0.02 0.04 0.05 0.05 0.05 0.04 0.05 0.05 0.04 0.03 0.02 0.02 0.01 0.01 0.01 0.01
0.03 0.03 0.02 0.02 0.02 0.02 0.02 0.01 0.01 0.01 0.01 0.01 0.01 0.01 0.02 0.02 0.02 0.02 0.02 0.01 0.02 0.03 0.03 0.04 0.05 0.05 0.05 0.05 0.04 0.03 0.03 0.03 0.02 0.02 0.02 0.02 0.02 0.01
0.02 0.03 0.02 0.02 0.03 0.03 0.03 0.02 0.01 0.01 0.01 0.01 0.01 0.02 0.01 0.01 0.02 0.03 0.03 0.02 0.03 0.03 0.03 0.03 0.04 0.05 0.05 0.05 0.04 0.04 0.03 0.03 0.02 0.02 0.03 0.03 0.03 0.02
0.02 0.02 0.01 0.01 0.02 0.03 0.03 0.04 0.03 0.03 0.03 0.02 0.02 0.02 0.02 0.02 0.02 0.02 0.02 0.02 0.02 0.03 0.03 0.03 0.03 0.04 0.04 0.04 0.05 0.04 0.03 0.03 0.02 0.02 0.02 0.02 0.02 0.02
0.02 0.01 0.01 0.01 0.02 0.02 0.02 0.02 0.03 0.03 0.04 0.03 0.02 0.02 0.02 0.02 0.02 0.02 0.02 0.02 0.03 0.03 0.04 0.03 0.03 0.02 0.03 0.03 0.03 0.03 0.03 0.03 0.03 0.03 0.02 0.02 0.02 0.01
0.01 0.01 0.01 0.01 0.02 0.02 0.01 0.01 0.02 0.03 0.04 0.04 0.03 0.02 0.02 0.02 0.02 0.02 0.02 0.02 0.03 0.03 0.03 0.03 0.02 0.02 0.02 0.02 0.02 0.02 0.03 0.03 0.03 0.03 0.02 0.02 0.02 0.02
0.01 0.01 0.01 0.01 0.01 0.02 0.01 0.01 0.02 0.03 0.03 0.05 0.05 0.03 0.02 0.01 0.01 0.01 0.01 0.02 0.02 0.02 0.02 0.02 0.02 0.02 0.02 0.02 0.01 0.01 0.01 0.02 0.02 0.02 0.02 0.03 0.03 0.02
0.02 0.02 0.02 0.02 0.02 0.01 0.02 0.02 0.03 0.02 0.02 0.02 0.03 0.04 0.02 0.01 0.01 0.01 0.01 0.01 0.01 0.01 0.01 0.01 0.02 0.02 0.02 0.02 0.02 0.02 0.02 0.02 0.02 0.01 0.01 0.02 0.02 0.02
0.02 0.03 0.03 0.03 0.03 0.02 0.02 0.02 0.03 0.03 0.02 0.01 0.01 0.01 0.02 0.02 0.01 0.01 0.01 0.01 0.01 0.02 0.02 0.02 0.01 0.01 0.01 0.01 0.02 0.02 0.02 0.02 0.02 0.02 0.01 0.01 0.01 0.01
0.04 0.05 0.03 0.02 0.01 0.01 0.01 0.01 0.03 0.04 0.03 0.02 0.01 0.01 0.01 0.01 0.01 0.01 0.01 0.01 0.02 0.02 0.03 0.03 0.03 0.02 0.02 0.01 0.01 0.01 0.02 0.02 0.02 0.02 0.02 0.02 0.02 0.02
0.06 0.06 0.04 0.02 0.01 0.01 0.00 0.01 0.02 0.04 0.05 0.04 0.02 0.01 0.01 0.01 0.01 0.01 0.01 0.01 0.01 0.02 0.02 0.03 0.03 0.04 0.03 0.03 0.02 0.01 0.01 0.01 0.02 0.02 0.02 0.02 0.03 0.03
0.06 0.07 0.05 0.03 0.02 0.01 0.01 0.01 0.01 0.02 0.04 0.05 0.05 0.04 0.02 0.01 0.01 0.01 0.01 0.01 0.02 0.02 0.02 0.02 0.02 0.02 0.02 0.03 0.02 0.02 0.02 0.02 0.02 0.03 0.02 0.02 0.03 0.03
0.04 0.05 0.06 0.05 0.04 0.03 0.02 0.01 0.01 0.02 0.03 0.04 0.05 0.04 0.03 0.03 0.02 0.01 0.01 0.01 0.01 0.02 0.02 0.02 0.01 0.01 0.02 0.02 0.02 0.02 0.02 0.02 0.01 0.01 0.01 0.01 0.02 0.02
0.04 0.04 0.04 0.05 0.05 0.04 0.03 0.02 0.02 0.02 0.02 0.03 0.05 0.06 0.04 0.02 0.02 0.01 0.01 0.01 0.01 0.01 0.01 0.02 0.02 0.03 0.03 0.03 0.03 0.02 0.01 0.02 0.02 0.02 0.02 0.02 0.02 0.01
0.02 0.03 0.03 0.04 0.04 0.04 0.04 0.03 0.02 0.02 0.02 0.03 0.03 0.04 0.05 0.03 0.02 0.01 0.01 0.02 0.01 0.01 0.01 0.02 0.02 0.03 0.03 0.04 0.03 0.03 0.02 0.03 0.03 0.03 0.02 0.02 0.01 0.01
0.03 0.03 0.04 0.04 0.04 0.04 0.04 0.04 0.04 0.03 0.03 0.03 0.03 0.03 0.04 0.04 0.04 0.03 0.03 0.03 0.02 0.03 0.03 0.02 0.02 0.03 0.03 0.04 0.04 0.03 0.03 0.02 0.02 0.01 0.01 0.01 0.01 0.01
MSLP
1024.26 1024.58 1024.91 1025.20 1025.45 1025.61 1025.68 1025.69 1025.63 1025.55 1025.46 1025.39 1025.34 1025.30 1025.27 1025.23 1025.16 1025.05 1024.90 1024.72 1024.52 1024.33 1024.15 1024.01 1023.90 1023.82 1023.77 1023.75 1023.73 1023.71 1023.70 1023.68 1023.67 1023.64 1023.59 1023.52 1023.41 1023.24
1024.58 1024.88 1025.18 1025.45 1025.66 1025.80 1025.87 1025.88 1025.84 1025.78 1025.71 1025.66 1025.62 1025.59 1025.54 1025.46 1025.34 1025.17 1024.95 1024.69 1024.42 1024.15 1023.90 1023.70 1023.55 1023.44 1023.38 1023.36 1023.36 1023.39 1023.42 1023.45 1023.49 1023.52 1023.53 1023.51 1023.44 1023.31
1024.86 1025.14 1025.42 1025.66 1025.85 1025.99 1026.07 1026.10 1026.10 1026.09 1026.08 1026.07 1026.06 1026.04 1025.99 1025.88 1025.71 1025.47 1025.17 1024.83 1024.46 1024.09 1023.76 1023.48 1023.26 1023.11 1023.02 1022.99 1023.00 1023.04 1023.11 1023.19 1023.28 1023.37 1023.44 1023.47 1023.45 1023.36
1025.07 1025.34 1025.60 1025.83 1026.02 1026.17 1026.28 1026.35 1026.41 1026.46 1026.51 1026.57 1026.60 1026.61 1026.56 1026.44 1026.24 1025.94 1025.56 1025.13 1024.66 1024.20 1023.77 1023.39 1023.09 1022.87 1022.73 1022.67 1022.66 1022.71 1022.81 1022.93 1023.06 1023.20 1023.33 1023.41 1023.45 1023.41
1025.22 1025.49 1025.75 1025.98 1026.18 1026.35 1026.50 1026.63 1026.75 1026.87 1026.98 1027.10 1027.19 1027.23 1027.19 1027.07 1026.84 1026.50 1026.07 1025.56 1025.01 1024.45 1023.93 1023.46 1023.07 1022.77 1022.57 1022.45 1022.41 1022.44 1022.54 1022.68 1022.85 1023.03 1023.20 1023.34 1023.43 1023.44
1025.32 1025.61 1025.88 1026.13 1026.35 1026.55 1026.74 1026.91 1027.08 1027.26 1027.43 1027.59 1027.72 1027.79 1027.78 1027.67 1027.43 1027.07 1026.61 1026.06 1025.46 1024.84 1024.24 1023.70 1023.22 1022.84 1022.55 1022.37 1022.27 1022.27 1022.34 1022.48 1022.66 1022.86 1023.07 1023.25 1023.39 1023.45
1025.42 1025.73 1026.03 1026.30 1026.55 1026.78 1026.99 1027.19 1027.39 1027.59 1027.79 1027.98 1028.14 1028.23 1028.24 1028.14 1027.92 1027.58 1027.13 1026.58 1025.96 1025.32 1024.68 1024.08 1023.54 1023.08 1022.72 1022.46 1022.30 1022.23 1022.26 1022.36 1022.53 1022.74 1022.96 1023.17 1023.34 1023.44
1025.54 1025.88 1026.21 1026.50 1026.77 1027.02 1027.24 1027.45 1027.65 1027.86 1028.05 1028.24 1028.39 1028.49 1028.52 1028.45 1028.27 1027.96 1027.55 1027.04 1026.46 1025.84 1025.20 1024.59 1024.01 1023.50 1023.07 1022.73 1022.50 1022.36 1022.32 1022.37 1022.50 1022.68 1022.89 1023.11 1023.30 1023.43
1025.68 1026.06 1026.41 1026.73 1027.02 1027.27 1027.49 1027.68 1027.87 1028.04 1028.20 1028.36 1028.49 1028.59 1028.62 1028.58 1028.44 1028.20 1027.87 1027.43 1026.92 1026.36 1025.77 1025.17 1024.59 1024.06 1023.58 1023.18 1022.87 1022.66 1022.54 1022.52 1022.59 1022.73 1022.91 1023.11 1023.30 1023.44
1025.81 1026.23 1026.62 1026.96 1027.26 1027.51 1027.72 1027.89 1028.03 1028.16 1028.28 1028.39 1028.49 1028.56 1028.59 1028.57 1028.48 1028.31 1028.06 1027.73 1027.32 1026.84 1026.33 1025.78 1025.23 1024.70 1024.21 1023.77 1023.40 1023.12 1022.93 1022.84 1022.83 1022.91 1023.04 1023.21 1023.37 1023.51
1025.91 1026.37 1026.79 1027.16 1027.48 1027.74 1027.93 1028.08 1028.19 1028.27 1028.33 1028.39 1028.44 1028.48 1028.51 1028.50 1028.45 1028.35 1028.18 1027.94 1027.62 1027.25 1026.82 1026.35 1025.86 1025.36 1024.87 1024.41 1024.01 1023.68 1023.44 1023.28 1023.22 1023.23 1023.30 1023.42 1023.55 1023.66
1025.95 1026.44 1026.90 1027.31 1027.65 1027.92 1028.12 1028.26 1028.35 1028.39 1028.41 1028.43 1028.44 1028.45 1028.45 1028.45 1028.42 1028.35 1028.23 1028.07 1027.84 1027.55 1027.21 1026.82 1026.39 1025.94 1025.48 1025.04 1024.64 1024.29 1024.02 1023.82 1023.70 1023.66 1023.68 1023.75 1023.84 1023.92
1025.91 1026.44 1026.94 1027.39 1027.77 1028.07 1028.30 1028.45 1028.53 1028.57 1028.57 1028.55 1028.53 1028.51 1028.49 1028.46 1028.42 1028.37 1028.27 1028.14 1027.96 1027.73 1027.45 1027.13 1026.76 1026.37 1025.97 1025.57 1025.20 1024.87 1024.59 1024.38 1024.24 1024.16 1024.14 1024.17 1024.22 1024.27
1025.79 1026.37 1026.91 1027.41 1027.83 1028.18 1028.45 1028.63 1028.74 1028.79 1028.80 1028.78 1028.74 1028.69 1028.64 1028.58 1028.51 1028.42 1028.31 1028.18 1028.00 1027.79 1027.55 1027.27 1026.96 1026.63 1026.29 1025.96 1025.64 1025.35 1025.11 1024.91 1024.78 1024.69 1024.65 1024.65 1024.67 1024.69
1025.61 1026.23 1026.82 1027.36 1027.84 1028.24 1028.56 1028.79 1028.95 1029.05 1029.08 1029.07 1029.03 1028.97 1028.88 1028.78 1028.66 1028.52 1028.36 1028.18 1027.98 1027.75 1027.51 1027.25 1026.98 1026.70 1026.43 1026.17 1025.93 1025.71 1025.53 1025.38 1025.27 1025.20 1025.16 1025.14 1025.14 1025.13
1025.40 1026.06 1026.68 1027.26 1027.79 1028.24 1028.61 1028.91 1029.12 1029.27 1029.35 1029.38 1029.35 1029.29 1029.18 1029.03 1028.86 1028.65 1028.42 1028.17 1027.91 1027.64 1027.37 1027.11 1026.87 1026.64 1026.43 1026.25 1026.09 1025.95 1025.84 1025.76 1025.70 1025.65 1025.62 1025.61 1025.59 1025.56
1025.18 1025.85 1026.50 1027.11 1027.66 1028.15 1028.57 1028.92 1029.20 1029.41 1029.55 1029.62 1029.63 1029.57 1029.46 1029.28 1029.06 1028.79 1028.49 1028.17 1027.84 1027.51 1027.21 1026.93 1026.70 1026.50 1026.35 1026.23 1026.15 1026.11 1026.07 1026.06 1026.05 1026.04 1026.03 1026.01 1025.98 1025.94
1024.93 1025.61 1026.27 1026.88 1027.44 1027.95 1028.40 1028.79 1029.12 1029.39 1029.59 1029.72 1029.77 1029.75 1029.65 1029.47 1029.23 1028.92 1028.57 1028.19 1027.80 1027.42 1027.08 1026.79 1026.55 1026.38 1026.27 1026.21 1026.20 1026.21 1026.25 1026.29 1026.33 1026.36 1026.36 1026.35 1026.30 1026.24
1024.64 1025.32 1025.96 1026.55 1027.11 1027.61 1028.08 1028.49 1028.86 1029.18 1029.44 1029.63 1029.75 1029.78 1029.72 1029.57 1029.33 1029.01 1028.64 1028.23 1027.81 1027.40 1027.03 1026.72 1026.49 1026.33 1026.24 1026.22 1026.26 1026.33 1026.41 1026.50 1026.57 1026.61 1026.63 1026.61 1026.55 1026.47
1024.26 1024.93 1025.54 1026.11 1026.64 1027.13 1027.59 1028.02 1028.42 1028.78 1029.10 1029.36 1029.54 1029.64 1029.65 1029.55 1029.35 1029.06 1028.70 1028.30 1027.87 1027.46 1027.08 1026.76 1026.53 1026.37 1026.30 1026.30 1026.36 1026.45 1026.57 1026.67 1026.76 1026.82 1026.83 1026.80 1026.74 1026.63
1023.76 1024.40 1024.99 1025.53 1026.03 1026.50 1026.94 1027.38 1027.80 1028.20 1028.57 1028.90 1029.17 1029.35 1029.43 1029.41 1029.28 1029.05 1028.74 1028.37 1027.96 1027.56 1027.19 1026.88 1026.64 1026.49 1026.42 1026.42 1026.48 1026.59 1026.70 1026.82 1026.91 1026.96 1026.97 1026.94 1026.86 1026.74
1023.10 1023.73 1024.29 1024.80 1025.28 1025.73 1026.17 1026.61 1027.05 1027.49 1027.92 1028.32 1028.67 1028.93 1029.11 1029.17 1029.12 1028.97 1028.72 1028.40 1028.04 1027.67 1027.32 1027.02 1026.78 1026.62 1026.54 1026.54 1026.59 1026.68 1026.79 1026.90 1026.98 1027.03 1027.04 1027.01 1026.92 1026.80
1022.27 1022.89 1023.44 1023.95 1024.41 1024.86 1025.30 1025.76 1026.23 1026.72 1027.20 1027.67 1028.08 1028.43 1028.69 1028.84 1028.88 1028.80 1028.62 1028.36 1028.05 1027.71 1027.39 1027.10 1026.86 1026.70 1026.60 1026.58 1026.62 1026.69 1026.79 1026.88 1026.97 1027.02 1027.03 1027.00 1026.93 1026.82
Thickness
5660 5659 5657 5656 5655 5654 5653 5651 5647 5642 5641 5642 5644 5646 5646 5647 5647 5648 5648 5648 5649 5649 5649 5649 5648 5648 5647 5646 5645 5643 5642 5642 5641 5640 5639 5638 5637 5636
5657 5656 5655 5654 5653 5652 5651 5649 5648 5645 5640 5640 5641 5642 5643 5644 5643 5643 5644 5644 5644 5645 5645 5644 5644 5643 5642 5641 5640 5639 5638 5637 5636 5635 5634 5633 5632 5631
5654 5653 5652 5651 5650 5649 5648 5646 5644 5643 5639 5637 5638 5638 5639 5639 5639 5639 5639 5639 5640 5640 5640 5639 5639 5638 5637 5636 5635 5634 5632 5631 5630 5629 5628 5627 5626 5625
5650 5650 5649 5648 5646 5645 5644 5643 5641 5640 5639 5635 5634 5634 5634 5634 5634 5634 5634 5635 5635 5635 5635 5634 5634 5633 5632 5631 5630 5628 5627 5625 5624 5623 5622 5622 5621 5619
5647 5646 5645 5644 5642 5642 5641 5640 5638 5638 5636 5634 5631 5630 5629 5629 5629 5629 5629 5629 5630 5630 5630 5630 5629 5628 5627 5626 5624 5623 5621 5620 5618 5617 5616 5615 5614 5613
5643 5643 5642 5641 5640 5639 5638 5637 5636 5634 5632 5630 5627 5626 5625 5624 5623 5623 5622 5623 5623 5624 5624 5624 5623 5622 5621 5620 5619 5617 5615 5613 5612 5611 5610 5608 5607 5606
5639 5639 5639 5639 5639 5638 5637 5634 5633 5630 5628 5625 5623 5622 5620 5619 5619 5618 5617 5617 5618 5618 5618 5618 5617 5616 5615 5614 5613 5611 5609 5607 5605 5604 5603 5602 5600 5599
5634 5634 5634 5634 5634 5634 5634 5633 5632 5628 5625 5622 5620 5619 5618 5617 5615 5614 5612 5611 5611 5613 5611 5611 5610 5609 5609 5608 5606 5605 5603 5601 5599 5598 5596 5595 5593 5592
5629 5629 5630 5630 5629 5629 5629 5628 5627 5627 5626 5622 5619 5618 5617 5615 5613 5610 5608 5607 5606 5607 5605 5605 5604 5603 5603 5602 5601 5599 5597 5595 5594 5592 5590 5588 5586 5585
5624 5624 5624 5624 5624 5624 5623 5621 5621 5621 5620 5619 5618 5617 5616 5614 5611 5609 5606 5603 5601 5600 5599 5598 5597 5596 5597 5596 5594 5593 5591 5589 5587 5585 5583 5581 5579 5577
5619 5620 5619 5619 5620 5619 5617 5615 5615 5614 5614 5613 5613 5612 5610 5608 5606 5602 5599 5597 5595 5594 5593 5591 5591 5589 5589 5588 5587 5586 5584 5582 5580 5578 5576 5573 5571 5569
5613 5614 5615 5615 5615 5613 5611 5610 5609 5608 5608 5607 5606 5605 5603 5602 5600 5598 5596 5592 5589 5588 5587 5584 5583 5581 5580 5580 5579 5578 5576 5574 5572 5570 5568 5565 5563 5561
5607 5608 5609 5609 5609 5608 5607 5606 5606 5604 5602 5600 5598 5597 5596 5594 5593 5592 5591 5589 5585 5584 5582 5578 5576 5573 5572 5571 5570 5569 5567 5565 5563 5561 5559 5557 5555 5553
5602 5603 5604 5604 5603 5602 5601 5601 5599 5597 5594 5592 5590 5589 5588 5587 5586 5585 5584 5582 5581 5579 5577 5573 5570 5567 5564 5562 5561 5560 5558 5556 5554 5552 5550 5548 5546 5544
5596 5597 5597 5597 5596 5594 5593 5592 5591 5588 5586 5584 5583 5582 5581 5580 5578 5577 5575 5573 5572 5570 5569 5567 5564 5561 5557 5555 5553 5550 5548 5547 5545 5543 5541 5539 5538 5536
5588 5588 5588 5588 5586 5585 5584 5582 5581 5580 5579 5578 5576 5574 5573 5571 5569 5567 5565 5563 5561 5560 5559 5558 5556 5553 5549 5547 5544 5542 5540 5538 5538 5535 5533 5531 5530 5528
5579 5578 5577 5576 5575 5574 5573 5572 5571 5570 5570 5569 5567 5565 5564 5562 5560 5558 5555 5553 5551 5551 5549 5547 5545 5543 5541 5539 5536 5535 5533 5531 5530 5527 5525 5523 5522 5520
5568 5567 5566 5566 5566 5565 5564 5563 5562 5561 5561 5560 5558 5556 5555 5553 5551 5548 5545 5543 5542 5542 5540 5537 5534 5532 5530 5530 5529 5529 5526 5524 5522 5519 5517 5515 5515 5513
5556 5556 5556 5556 5556 5555 5555 5554 5553 5552 5551 5550 5549 5547 5545 5544 5541 5539 5536 5533 5532 5531 5530 5527 5525 5525 5525 5526 5524 5521 5519 5517 5514 5511 5509 5508 5508 5507
5545 5545 5545 5545 5544 5544 5543 5543 5543 5542 5540 5539 5538 5537 5535 5534 5532 5529 5527 5524 5523 5522 5520 5519 5518 5518 5519 5519 5516 5513 5512 5510 5507 5505 5503 5500 5499 5498
5534 5534 5534 5534 5534 5533 5532 5532 5531 5531 5530 5529 5528 5527 5526 5524 5523 5521 5519 5517 5514 5513 5513 5514 5514 5512 5509 5507 5506 5506 5504 5503 5501 5499 5496 5492 5490 5489
5525 5525 5524 5524 5523 5522 5521 5520 5520 5519 5519 5519 5518 5518 5516 5515 5514 5513 5511 5509 5508 5507 5507 5506 5504 5502 5500 5500 5501 5500 5497 5494 5492 5491 5489 5487 5484 5483
5516 5515 5514 5514 5513 5512 5511 5510 5509 5509 5509 5509 5508 5508 5507 5507 5506 5504 5503 5502 5500 5499 5498 5496 5494 5492 5492 5492 5491 5490 5488 5486 5483 5482 5481 5480 5479 5478